Time,TemperatureF,DewpointF,PressureIn,WindDirection,WindDirectionDegrees,WindSpeedMPH,WindSpeedGustMPH,Humidity,HourlyPrecipIn,Conditions,Clouds,dailyrainin,SoftwareType,DateUTC
2013-10-10 00:00:00,53.6,39.6,0.00,North,353,3.0,3.0,59,0.00,,,0.00,Weather View 32 v70,2013-10-10 04:00:00,
2013-10-10 00:05:00,53.6,39.6,0.00,North,353,3.0,3.0,59,0.00,,,0.00,Weather View 32 v70,2013-10-10 04:05:00,
2013-10-10 00:15:00,53.6,39.6,0.00,NNW,344,0.0,3.0,59,0.00,,,0.00,Weather View 32 v70,2013-10-10 04:15:00,
2013-10-10 00:30:00,53.2,39.7,0.00,North,353,2.0,3.0,60,0.00,,,0.00,Weather View 32 v70,2013-10-10 04:30:00,
2013-10-10 00:45:00,53.1,39.5,0.00,North,353,2.0,3.0,60,0.00,,,0.00,Weather View 32 v70,2013-10-10 04:45:00,
2013-10-10 01:00:00,52.9,39.3,0.00,North,357,3.0,3.0,60,0.00,,,0.00,Weather View 32 v70,2013-10-10 05:00:00,
2013-10-10 01:06:00,52.9,39.3,0.00,North,357,3.0,3.0,60,0.00,,,0.00,Weather View 32 v70,2013-10-10 05:06:00,
2013-10-10 01:15:00,52.9,39.3,0.00,North,5,3.0,5.0,60,0.00,,,0.00,Weather View 32 v70,2013-10-10 05:15:00,
2013-10-10 01:30:00,52.7,39.2,0.00,North,357,3.0,5.0,60,0.00,,,0.00,Weather View 32 v70,2013-10-10 05:30:00,
2013-10-10 01:45:00,52.7,38.3,0.00,North,357,3.0,5.0,58,0.00,,,0.00,Weather View 32 v70,2013-10-10 05:45:00,
2013-10-10 02:00:00,52.5,37.7,0.00,North,3,3.0,6.0,57,0.00,,,0.00,Weather View 32 v70,2013-10-10 06:00:00,
2013-10-10 02:07:00,52.5,37.7,0.00,North,3,3.0,6.0,57,0.00,,,0.00,Weather View 32 v70,2013-10-10 06:07:00,
2013-10-10 02:15:00,52.5,37.7,0.00,NNE,15,4.0,6.0,57,0.00,,,0.00,Weather View 32 v70,2013-10-10 06:15:00,
2013-10-10 02:30:00,52.5,37.7,0.00,North,3,2.0,6.0,57,0.00,,,0.00,Weather View 32 v70,2013-10-10 06:30:00,
2013-10-10 02:45:00,52.5,37.7,0.00,NNW,345,3.0,6.0,57,0.00,,,0.00,Weather View 32 v70,2013-10-10 06:45:00,
2013-10-10 03:00:00,52.7,37.9,0.00,North,353,0.0,5.0,57,0.00,,,0.00,Weather View 32 v70,2013-10-10 07:00:00,
2013-10-10 03:07:00,52.7,37.9,0.00,North,353,0.0,5.0,57,0.00,,,0.00,Weather View 32 v70,2013-10-10 07:07:00,
2013-10-10 03:15:00,52.5,37.7,0.00,North,357,2.0,5.0,57,0.00,,,0.00,Weather View 32 v70,2013-10-10 07:15:00,
2013-10-10 03:30:00,52.3,37.5,0.00,North,4,2.0,4.0,57,0.00,,,0.00,Weather View 32 v70,2013-10-10 07:30:00,
2013-10-10 03:45:00,52.3,37.1,0.00,North,349,2.0,4.0,56,0.00,,,0.00,Weather View 32 v70,2013-10-10 07:45:00,
2013-10-10 04:00:00,52.3,37.1,0.00,North,11,2.0,4.0,56,0.00,,,0.00,Weather View 32 v70,2013-10-10 08:00:00,
2013-10-10 04:08:00,52.3,37.1,0.00,North,11,2.0,4.0,56,0.00,,,0.00,Weather View 32 v70,2013-10-10 08:08:00,
2013-10-10 04:15:00,52.3,37.5,0.00,NNW,345,3.0,4.0,57,0.00,,,0.00,Weather View 32 v70,2013-10-10 08:15:00,
2013-10-10 04:30:00,52.2,37.4,0.00,North,10,2.0,5.0,57,0.00,,,0.00,Weather View 32 v70,2013-10-10 08:30:00,
2013-10-10 04:45:00,51.8,37.9,0.00,NNE,32,3.0,5.0,59,0.00,,,0.00,Weather View 32 v70,2013-10-10 08:45:00,
2013-10-10 05:00:00,51.8,37.9,0.00,NNW,346,0.0,5.0,59,0.00,,,0.00,Weather View 32 v70,2013-10-10 09:00:00,
2013-10-10 05:08:00,51.8,37.9,0.00,NNW,346,0.0,5.0,59,0.00,,,0.00,Weather View 32 v70,2013-10-10 09:08:00,
2013-10-10 05:15:00,51.8,37.9,0.00,North,0,0.0,5.0,59,0.00,,,0.00,Weather View 32 v70,2013-10-10 09:15:00,
2013-10-10 05:30:00,51.6,38.2,0.00,NNE,12,2.0,4.0,60,0.00,,,0.00,Weather View 32 v70,2013-10-10 09:30:00,
2013-10-10 05:45:00,51.6,38.2,0.00,NNW,334,3.0,4.0,60,0.00,,,0.00,Weather View 32 v70,2013-10-10 09:45:00,
2013-10-10 06:00:00,51.6,38.6,0.00,NNE,19,0.0,4.0,61,0.00,,,0.00,Weather View 32 v70,2013-10-10 10:00:00,
2013-10-10 06:09:00,51.6,38.6,0.00,NNE,19,0.0,4.0,61,0.00,,,0.00,Weather View 32 v70,2013-10-10 10:09:00,
2013-10-10 06:15:00,51.8,38.8,0.00,North,8,3.0,4.0,61,0.00,,,0.00,Weather View 32 v70,2013-10-10 10:15:00,
2013-10-10 06:30:00,51.6,38.6,0.00,NNW,342,3.0,4.0,61,0.00,,,0.00,Weather View 32 v70,2013-10-10 10:30:00,
2013-10-10 06:45:00,51.6,39.0,0.00,North,4,3.0,4.0,62,0.00,,,0.00,Weather View 32 v70,2013-10-10 10:45:00,
2013-10-10 07:00:00,51.6,39.0,0.00,North,0,3.0,6.0,62,0.00,,,0.00,Weather View 32 v70,2013-10-10 11:00:00,
2013-10-10 07:09:00,51.6,39.0,0.00,North,0,3.0,6.0,62,0.00,,,0.00,Weather View 32 v70,2013-10-10 11:09:00,
2013-10-10 07:15:00,51.8,39.2,0.00,North,10,3.0,6.0,62,0.00,,,0.00,Weather View 32 v70,2013-10-10 11:15:00,
2013-10-10 07:30:00,51.8,39.2,0.00,North,5,3.0,6.0,62,0.00,,,0.00,Weather View 32 v70,2013-10-10 11:30:00,
2013-10-10 07:45:00,52.0,39.8,0.00,NNE,17,3.0,6.0,63,0.00,,,0.00,Weather View 32 v70,2013-10-10 11:45:00,
2013-10-10 08:00:00,52.2,39.9,0.00,NNE,19,3.0,6.0,63,0.00,,,0.00,Weather View 32 v70,2013-10-10 12:00:00,
2013-10-10 08:15:00,52.5,39.9,0.00,North,357,3.0,6.0,62,0.00,,,0.00,Weather View 32 v70,2013-10-10 12:15:00,
2013-10-10 08:30:00,52.9,40.2,0.00,North,7,3.0,6.0,62,0.00,,,0.00,Weather View 32 v70,2013-10-10 12:30:00,
2013-10-10 08:45:00,53.1,41.6,0.00,North,357,3.0,5.0,65,0.00,,,0.00,Weather View 32 v70,2013-10-10 12:45:00,
2013-10-10 09:00:00,53.2,42.5,0.00,NNE,17,4.0,5.0,67,0.00,,,0.00,Weather View 32 v70,2013-10-10 13:00:00,
2013-10-10 09:15:00,53.4,42.7,0.00,North,5,4.0,6.0,67,0.00,,,0.00,Weather View 32 v70,2013-10-10 13:15:00,
2013-10-10 09:30:00,53.6,42.9,0.00,NNW,346,5.0,6.0,67,0.00,,,0.00,Weather View 32 v70,2013-10-10 13:30:00,
2013-10-10 09:45:00,54.0,43.2,0.00,North,4,4.0,6.0,67,0.00,,,0.00,Weather View 32 v70,2013-10-10 13:45:00,
2013-10-10 10:00:00,54.5,43.0,0.00,NNE,24,4.0,6.0,65,0.00,,,0.00,Weather View 32 v70,2013-10-10 14:00:00,
2013-10-10 10:15:00,55.2,44.0,0.00,NE,52,2.0,6.0,66,0.00,,,0.00,Weather View 32 v70,2013-10-10 14:15:00,
2013-10-10 10:30:00,55.6,44.0,0.00,NNE,12,4.0,6.0,65,0.00,,,0.00,Weather View 32 v70,2013-10-10 14:30:00,
2013-10-10 10:45:00,55.9,43.9,0.00,North,6,3.0,6.0,64,0.00,,,0.00,Weather View 32 v70,2013-10-10 14:45:00,
2013-10-10 11:00:00,56.1,44.5,0.00,North,7,3.0,6.0,65,0.00,,,0.00,Weather View 32 v70,2013-10-10 15:00:00,
2013-10-10 11:15:00,56.7,45.0,0.00,North,357,4.0,6.0,65,0.00,,,0.00,Weather View 32 v70,2013-10-10 15:15:00,
2013-10-10 11:30:00,57.2,45.1,0.00,North,357,4.0,7.0,64,0.00,,,0.00,Weather View 32 v70,2013-10-10 15:30:00,
2013-10-10 11:45:00,57.4,44.0,0.00,North,2,4.0,7.0,61,0.00,,,0.00,Weather View 32 v70,2013-10-10 15:45:00,
2013-10-10 12:00:00,57.4,43.6,0.00,NNE,17,3.0,7.0,60,0.00,,,0.00,Weather View 32 v70,2013-10-10 16:00:00,
2013-10-10 12:15:00,57.6,43.7,0.00,NNE,24,4.0,7.0,60,0.00,,,0.00,Weather View 32 v70,2013-10-10 16:15:00,
2013-10-10 12:30:00,58.1,43.4,0.00,NNW,334,3.0,8.0,58,0.00,,,0.00,Weather View 32 v70,2013-10-10 16:30:00,
2013-10-10 12:45:00,58.8,43.1,0.00,North,350,4.0,8.0,56,0.00,,,0.00,Weather View 32 v70,2013-10-10 16:45:00,
2013-10-10 13:00:00,58.8,43.1,0.00,North,1,4.0,8.0,56,0.00,,,0.00,Weather View 32 v70,2013-10-10 17:00:00,
2013-10-10 13:15:00,59.2,43.0,0.00,NNE,17,3.0,8.0,55,0.00,,,0.00,Weather View 32 v70,2013-10-10 17:15:00,
2013-10-10 13:30:00,59.5,43.8,0.00,NNE,13,3.0,6.0,56,0.00,,,0.00,Weather View 32 v70,2013-10-10 17:30:00,
2013-10-10 13:45:00,60.1,43.3,0.00,NNE,22,5.0,9.0,54,0.00,,,0.00,Weather View 32 v70,2013-10-10 17:45:00,
2013-10-10 14:00:00,60.6,43.8,0.00,North,4,2.0,9.0,54,0.00,,,0.00,Weather View 32 v70,2013-10-10 18:00:00,
2013-10-10 14:15:00,62.4,43.0,0.00,NNE,27,4.0,9.0,49,0.00,,,0.00,Weather View 32 v70,2013-10-10 18:15:00,
2013-10-10 14:30:00,61.5,43.2,0.00,North,2,3.0,9.0,51,0.00,,,0.00,Weather View 32 v70,2013-10-10 18:30:00,
2013-10-10 14:45:00,61.3,43.5,0.00,NNW,330,3.0,8.0,52,0.00,,,0.00,Weather View 32 v70,2013-10-10 18:45:00,
2013-10-10 15:00:00,61.3,44.5,0.00,North,353,4.0,7.0,54,0.00,,,0.00,Weather View 32 v70,2013-10-10 19:00:00,
2013-10-10 15:15:00,61.3,45.0,0.00,NNE,31,4.0,7.0,55,0.00,,,0.00,Weather View 32 v70,2013-10-10 19:15:00,
2013-10-10 15:30:00,61.5,43.7,0.00,North,6,4.0,8.0,52,0.00,,,0.00,Weather View 32 v70,2013-10-10 19:30:00,
2013-10-10 15:45:00,61.2,44.3,0.00,NNW,342,4.0,10.0,54,0.00,,,0.00,Weather View 32 v70,2013-10-10 19:45:00,
2013-10-10 16:00:00,61.0,44.2,0.00,North,0,4.0,10.0,54,0.00,,,0.00,Weather View 32 v70,2013-10-10 20:00:00,
2013-10-10 16:15:00,60.8,42.5,0.00,North,1,2.0,10.0,51,0.00,,,0.00,Weather View 32 v70,2013-10-10 20:15:00,
2013-10-10 16:30:00,60.4,42.7,0.00,North,353,3.0,10.0,52,0.00,,,0.00,Weather View 32 v70,2013-10-10 20:30:00,
2013-10-10 16:45:00,60.4,43.2,0.00,NNE,26,3.0,8.0,53,0.00,,,0.00,Weather View 32 v70,2013-10-10 20:45:00,
2013-10-10 17:00:00,60.3,43.0,0.00,North,7,0.0,8.0,53,0.00,,,0.00,Weather View 32 v70,2013-10-10 21:00:00,
2013-10-10 17:15:00,60.3,43.5,0.00,North,1,4.0,6.0,54,0.00,,,0.00,Weather View 32 v70,2013-10-10 21:15:00,
2013-10-10 17:30:00,60.1,43.8,0.00,North,3,3.0,6.0,55,0.00,,,0.00,Weather View 32 v70,2013-10-10 21:30:00,
2013-10-10 17:45:00,59.9,43.7,0.00,NNW,334,4.0,6.0,55,0.00,,,0.00,Weather View 32 v70,2013-10-10 21:45:00,
2013-10-10 18:00:00,59.7,43.5,0.00,North,1,2.0,5.0,55,0.00,,,0.00,Weather View 32 v70,2013-10-10 22:00:00,
2013-10-10 18:15:00,59.5,43.8,0.00,North,357,3.0,4.0,56,0.00,,,0.00,Weather View 32 v70,2013-10-10 22:15:00,
2013-10-10 18:30:00,59.2,43.5,0.00,North,353,3.0,4.0,56,0.00,,,0.00,Weather View 32 v70,2013-10-10 22:30:00,
2013-10-10 18:45:00,59.2,43.9,0.00,NNW,334,3.0,4.0,57,0.00,,,0.00,Weather View 32 v70,2013-10-10 22:45:00,
2013-10-10 19:00:00,59.0,43.3,0.00,NNW,337,0.0,4.0,56,0.00,,,0.00,Weather View 32 v70,2013-10-10 23:00:00,
2013-10-10 19:15:00,58.8,43.6,0.00,NNW,339,3.0,4.0,57,0.00,,,0.00,Weather View 32 v70,2013-10-10 23:15:00,
2013-10-10 19:30:00,58.8,44.0,0.00,North,1,3.0,4.0,58,0.00,,,0.00,Weather View 32 v70,2013-10-10 23:30:00,
2013-10-10 19:45:00,58.8,44.5,0.00,NNE,23,3.0,4.0,59,0.00,,,0.00,Weather View 32 v70,2013-10-10 23:45:00,
2013-10-10 20:00:00,59.0,44.2,0.00,North,353,4.0,5.0,58,0.00,,,0.00,Weather View 32 v70,2013-10-11 00:00:00,
2013-10-10 20:15:00,59.0,43.8,0.00,NW,319,5.0,5.0,57,0.00,,,0.00,Weather View 32 v70,2013-10-11 00:15:00,
2013-10-10 20:30:00,59.0,43.8,0.00,North,10,2.0,5.0,57,0.00,,,0.00,Weather View 32 v70,2013-10-11 00:30:00,
2013-10-10 20:45:00,59.0,43.8,0.00,North,357,3.0,5.0,57,0.00,,,0.00,Weather View 32 v70,2013-10-11 00:45:00,
2013-10-10 21:00:00,59.2,43.9,0.00,North,5,3.0,5.0,57,0.00,,,0.00,Weather View 32 v70,2013-10-11 01:00:00,
2013-10-10 21:15:00,59.2,43.9,0.00,North,353,0.0,5.0,57,0.00,,,0.00,Weather View 32 v70,2013-10-11 01:15:00,
2013-10-10 21:30:00,59.2,43.5,0.00,NE,40,4.0,6.0,56,0.00,,,0.00,Weather View 32 v70,2013-10-11 01:30:00,
2013-10-10 21:45:00,59.2,43.9,0.00,NNE,17,4.0,6.0,57,0.00,,,0.00,Weather View 32 v70,2013-10-11 01:45:00,
2013-10-10 22:00:00,59.4,43.6,0.00,NNE,14,3.0,6.0,56,0.00,,,0.00,Weather View 32 v70,2013-10-11 02:00:00,
2013-10-10 22:15:00,59.5,43.8,0.00,North,353,4.0,6.0,56,0.00,,,0.00,Weather View 32 v70,2013-10-11 02:15:00,
2013-10-10 22:30:00,59.5,43.3,0.00,North,353,3.0,6.0,55,0.00,,,0.00,Weather View 32 v70,2013-10-11 02:30:00,
2013-10-10 22:45:00,59.5,43.3,0.00,North,353,3.0,6.0,55,0.00,,,0.00,Weather View 32 v70,2013-10-11 02:45:00,
2013-10-10 23:00:00,59.4,43.2,0.00,North,11,4.0,6.0,55,0.00,,,0.00,Weather View 32 v70,2013-10-11 03:00:00,
2013-10-10 23:15:00,59.4,43.2,0.00,NNW,344,4.0,5.0,55,0.00,,,0.00,Weather View 32 v70,2013-10-11 03:15:00,
2013-10-10 23:30:00,59.4,43.2,0.00,NNE,14,3.0,6.0,55,0.00,,,0.00,Weather View 32 v70,2013-10-11 03:30:00,
2013-10-10 23:45:00,59.4,43.2,0.00,NNE,16,4.0,6.0,55,0.00,,,0.00,Weather View 32 v70,2013-10-11 03:45:00,